Regional Weather Roundup
Issued by NWS Newport/Morehead, NC

Current Version | Previous Version | Text Only | Print | Product List | Glossary Off
Versions: 1 2 3 4 5 6 7 8 9 10 11 12 13 14 15 16 17 18 19 20 21 22 23 24 25 26 27 28 29 30 31 32 33 34 35 36 37 38 39 40 41 42 43 44 45 46 47 48 49 50
000 ASUS42 KMHX 270012 RWRMHX WEATHER ROUNDUP FOR EASTERN NORTH CAROLINA NATIONAL WEATHER SERVICE NEWPORT/MOREHEAD CITY NC 700 PM EST THU FEB 26 2015 NOTE: "FAIR" INDICATES FEW OR NO CLOUDS BELOW 12,000 FEET WITH NO SIGNIFICANT WEATHER AND/OR OBSTRUCTIONS TO VISIBILITY NCZ015>017-031-032-045>047-102-103-270100- NORTH COAST CITY SKY/WX TMP DP RH WIND PRES REMARKS EDENTON MIX PCPN 33 32 96 N8 30.05R ELIZABETH CITY NOT AVBL KITTY HAWK CLOUDY 32 32 99 N10G25 30.01R MANTEO CLOUDY 32 30 93 N18G26 30.02R $$ NCZ045>047-081-094-103-104-270100- CENTRAL COAST CITY SKY/WX TMP DP RH WIND PRES REMARKS FRISCO CLOUDY 33 32 96 N8G22 29.99R SWANQUARTER N/A 34 N/A N/A N8G21 30.00R $$ NCZ095-097-098-100-101-270100- SOUTHERN COAST CITY SKY/WX TMP DP RH WIND PRES REMARKS BEAUFORT CLOUDY 36 33 89 N12G21 30.02R CEDAR ISLAND N/A 36 N/A N/A NW23 30.03S JACKSONVILLE CLOUDY 37 32 82 N10 30.04R PINEY ISLAND N/A N/A N/A N/A MISG 30.02R WILMINGTON CLOUDY 38 32 79 N9 30.04R $$ NCZ011>013-027>030-043-044-078>080-089-090>093-098-270100- COASTAL PLAIN CITY SKY/WX TMP DP RH WIND PRES REMARKS AHOSKIE MOCLDY 32 31 96 CALM 30.08R CLINTON CLOUDY 37 34 89 N5 30.07R ELIZABETHTOWN CLOUDY 37 33 84 CALM 30.06R GOLDSBORO CLOUDY 36 36 99 N8 30.05R GREENVILLE CLOUDY 34 32 93 N6 30.08R HAVELOCK CLOUDY 37 32 82 N13 30.04R KENANSVILLE CLOUDY 36 33 90 N6 30.06R KINSTON MOCLDY 36 32 87 N7 30.07R NEW BERN CLOUDY 36 32 85 N9 30.05R RICHLANDS CLOUDY 36 30 80 N8 30.05R ROCKY MOUNT CLOUDY 35 32 88 NW3 30.07R WASHINGTON CLOUDY 34 32 93 N7 30.05R WHITEVILLE CLOUDY 38 33 82 CALM 30.05R $$ AMZ130-135-150-152-154-156-158-170-250-252-270-ANZ085-086-088-633-658-670-270100- MARINE OBSERVATIONS STATION/POSITION TIME TEMP WIND PRES WAVE SWELL AIR SEA DIR/SP/G HT/PER HT/PER (UTC) (F) (DEG/KT/KT) (MB) (FT/S) (FT/S) CHESAPEAKE LIGHT 2300 31 360/ 26/ 27 1016.0 64 E VA BEACH 2350 44 58 10/ 25/ 29 1013.5 13/10 10/10 DUCK 2300 33 35 10/ 25/ 29 1013.3 2 E DUCK 2311 36 N/A 10/11 3/11 10 NE DUCK 2322 38 N/A 12/ 9 3/11 OREGON INLET 2300 33 37 340/ 17/ 24 1014.0 HATTERAS CG 2300 35 41 350/ 20/ 25 1014.2 CAPE LOOKOUT 0000 37 340/ 17/ 21 1015.9 BEAUFORT LAB 2300 37 40 360/ 15/ 19 1014.3 27 SE WRIGHTSVLE NOT AVBL 5 SE WRIGHTSVLE NOT AVBL 225 S CAPE HAT 2350 64 70 290/ 16/ 23 1013.3 13/11 11/11 41 SE CHARLESTON 2350 45 66 350/ 14/ 19 1016.4 6/ 8 5/ 8 $$

USA.gov is the U.S. government's official web portal to all federal, state and local government web resources and services.